SCP
0 0 0 0 0 0 0 0 0 0 0 0 0 0 0 0 0 0 0 1 1 1 1 1 2 2 2 2 2 1 1 1 1 1 1 0 0 0 0 1 1 0 0 0 0 0 0 0 0
0 0 0 0 0 0 0 0 0 0 0 0 0 0 0 0 0 0 0 1 1 1 1 1 1 2 2 2 2 1 1 1 1 1 1 1 0 0 0 1 1 0 0 0 0 0 0 0 0
0 0 0 0 0 0 0 0 0 0 0 0 0 0 0 0 0 0 0 1 1 1 1 1 1 2 2 2 2 1 1 1 1 1 1 1 1 0 1 1 1 0 0 0 0 1 1 0 0
0 0 0 0 0 0 0 0 0 0 0 0 0 0 0 0 0 0 0 0 1 1 1 1 1 2 2 2 2 1 1 1 1 1 1 1 1 1 1 1 1 1 0 1 1 1 1 1 1
0 0 0 0 0 0 0 0 0 0 0 0 0 0 0 0 0 0 0 0 1 1 1 1 1 2 2 2 2 1 1 1 1 1 1 1 1 1 1 1 1 1 1 1 1 1 1 1 1
0 0 0 0 0 0 0 0 0 0 0 0 0 0 0 0 0 0 0 0 1 1 1 1 1 2 2 2 2 1 1 1 1 1 1 1 1 1 1 1 1 1 1 1 1 1 1 1 1
0 0 0 0 0 0 0 0 0 0 0 0 0 0 0 0 0 0 0 1 1 1 1 1 1 1 2 2 1 1 1 1 1 1 1 1 1 1 1 1 1 1 1 1 1 1 1 1 1
0 0 0 0 0 0 0 0 0 0 0 0 0 0 0 0 0 0 1 1 1 1 1 1 1 1 1 1 1 1 1 1 1 1 0 0 1 1 1 1 1 1 1 1 1 1 1 1 1
0 0 0 0 0 0 0 0 0 0 0 0 0 0 0 0 0 0 1 1 1 1 1 1 1 1 1 1 1 1 1 1 1 1 0 0 0 0 0 0 1 1 1 1 1 1 0 1 1
0 0 0 0 0 0 0 0 0 0 0 0 0 0 0 0 0 0 0 1 1 1 1 1 1 1 1 1 1 1 1 1 1 1 1 0 0 1 0 0 0 1 1 1 1 1 0 0 1
0 0 0 0 0 0 0 0 0 0 0 0 0 0 0 1 1 1 0 0 1 1 1 1 1 1 1 1 1 1 1 1 1 1 1 1 1 1 1 1 1 1 1 1 1 1 1 0 0
0 0 0 0 0 0 0 0 0 0 0 0 0 0 1 1 1 1 1 0 0 1 1 1 1 1 1 1 1 1 1 1 1 1 1 1 1 1 1 1 1 0 0 1 1 1 1 0 0
0 0 0 0 0 0 0 0 0 0 0 0 0 0 0 0 1 1 1 0 0 0 1 1 1 1 1 1 1 0 0 1 1 1 1 1 1 1 1 1 0 0 0 0 0 1 0 0 0
0 0 0 0 0 0 0 0 0 0 0 0 0 0 0 0 0 0 0 0 0 0 1 1 1 1 1 1 1 1 1 1 1 1 1 1 1 1 0 0 0 0 0 0 0 0 0 0 0
0 0 0 0 0 0 0 0 0 0 0 0 0 0 0 0 0 0 0 0 0 0 0 1 1 1 1 1 1 1 1 0 1 1 1 1 1 0 0 0 0 0 0 0 0 0 0 0 0
0 0 0 0 0 0 0 0 0 0 0 0 0 0 0 0 0 0 0 0 0 0 0 1 1 1 1 1 1 1 0 0 0 1 1 1 1 0 0 0 0 0 0 0 0 0 0 0 0
0 0 0 0 0 0 0 0 0 0 0 0 0 0 0 0 0 0 0 0 0 0 0 1 1 1 1 1 1 1 0 0 0 1 1 1 1 0 0 0 0 0 0 0 0 0 0 0 0
0 0 0 0 0 0 0 0 0 0 0 0 0 0 0 0 0 0 0 0 0 0 0 1 1 1 1 1 1 0 0 0 0 1 1 1 1 0 0 0 0 0 0 0 0 0 0 0 0
0 0 0 0 0 0 0 0 0 0 0 0 0 0 0 0 0 0 0 0 0 0 0 1 1 1 1 1 0 0 0 0 0 1 1 1 0 0 0 0 0 0 0 0 0 0 0 0 0
0 0 0 0 0 0 0 0 0 0 0 0 0 0 0 0 0 0 0 0 0 0 0 0 1 1 1 0 0 0 0 0 0 0 1 1 0 0 0 0 0 0 0 0 0 0 0 0 0
0 0 0 0 0 0 0 0 0 0 0 0 0 0 0 0 0 0 0 0 0 0 0 0 0 1 1 1 0 0 0 0 0 0 0 0 0 0 0 0 0 0 0 0 0 0 0 0 0
0 0 0 0 0 0 0 0 0 0 0 0 0 0 0 0 0 0 0 0 0 0 0 0 0 0 1 1 1 0 0 0 0 0 0 0 0 0 0 0 0 0 0 0 0 0 0 0 0
0 0 0 0 0 0 0 0 0 0 0 0 0 0 0 0 0 0 0 0 0 0 0 0 0 0 0 0 0 0 0 0 0 0 0 0 0 0 0 0 0 0 0 0 0 0 0 0 0
0 0 0 0 0 0 0 0 0 0 0 0 0 0 0 0 0 0 0 0 0 0 0 0 0 0 0 0 0 0 0 0 0 0 0 0 0 0 0 0 0 0 0 0 0 0 0 0 0
0 0 0 0 0 0 0 0 0 0 0 0 0 0 0 0 0 0 0 0 0 0 0 0 0 0 0 0 0 0 0 0 0 0 0 0 0 0 0 0 0 0 0 0 0 0 0 0 0
0 0 0 0 0 0 0 0 0 0 0 0 0 0 0 0 0 0 0 0 0 0 0 0 0 0 0 0 0 0 0 0 0 0 0 0 0 0 0 0 0 0 0 0 0 0 0 0 0
0 0 0 0 0 0 0 0 0 0 0 0 0 0 0 0 0 0 0 0 0 0 0 0 0 0 0 0 0 0 0 0 0 0 0 0 0 0 0 0 0 0 0 0 0 0 0 0 0
0 0 0 0 0 0 0 0 0 0 0 0 0 0 0 0 0 0 0 0 0 0 0 0 0 0 0 0 0 0 0 0 0 0 0 0 0 0 0 0 0 0 0 0 0 0 0 0 0
0 0 0 0 0 0 0 0 0 0 0 0 0 0 0 0 0 0 0 0 0 0 0 0 0 0 0 0 0 0 0 0 0 0 0 0 0 0 0 0 0 0 0 0 0 0 0 0 0
0 0 0 0 0 0 0 0 0 0 0 0 0 0 0 0 0 0 0 0 0 0 0 0 0 0 0 0 0 0 0 0 0 0 0 0 0 0 0 0 0 0 0 0 0 0 0 0 0
Wind_Speed
6 3 2 2 3 3 4 2 1 2 2 1 1 0 0 0 1 3 4 2 3 4 5 6 5 7 8 8 8 7 7 6 6 6 6 7 7 7 8 8 8 8 8 8 9 9 9 9 9
4 2 2 2 4 5 4 3 3 1 1 2 1 0 1 1 2 3 2 2 3 4 5 5 6 7 7 7 7 7 7 6 6 6 6 6 7 7 7 7 7 7 7 8 8 8 8 8 8
2 2 1 2 4 4 3 2 2 2 1 1 1 1 1 2 2 2 2 3 4 4 5 5 5 6 7 7 7 7 7 6 6 6 6 6 6 6 6 6 6 6 6 7 7 7 7 7 8
1 2 1 3 5 3 2 1 2 3 2 0 1 2 2 2 2 2 3 4 4 4 4 6 5 6 7 7 6 7 6 6 6 5 5 5 5 5 6 6 6 6 6 6 6 6 6 6 7
1 2 3 4 5 3 2 2 2 3 2 1 2 1 2 2 2 2 4 4 4 4 4 5 5 6 6 6 6 6 5 5 5 5 5 5 5 5 5 5 5 5 5 5 5 5 5 5 5
2 2 4 5 5 3 2 2 3 3 2 1 2 2 2 3 2 2 3 4 4 4 4 4 5 5 5 5 5 5 5 5 5 5 4 5 5 5 5 5 5 5 4 5 5 4 4 4 4
2 2 3 4 4 4 2 1 3 3 3 2 1 2 3 2 2 2 3 4 3 3 3 3 4 4 4 4 4 4 4 4 4 4 4 5 4 5 5 4 4 4 4 4 4 4 4 3 3
0 2 3 4 5 4 2 2 1 2 1 1 2 3 2 2 3 3 4 3 3 3 3 3 3 4 4 4 4 4 4 4 4 4 5 4 4 4 4 3 4 4 4 4 4 3 3 3 3
2 3 4 4 4 2 2 2 1 1 1 1 1 2 2 3 4 4 4 3 3 3 3 3 3 3 3 3 3 4 4 4 3 4 4 2 2 2 2 3 3 3 3 3 3 3 3 2 2
2 4 3 1 1 1 2 2 2 2 3 3 3 2 1 3 5 5 5 5 5 4 4 3 4 3 3 2 2 2 2 2 2 2 2 1 1 1 1 3 2 2 3 2 3 2 1 1 0
1 2 2 1 1 1 2 1 1 4 5 5 5 4 3 4 5 6 6 6 5 5 4 3 3 3 3 2 2 1 1 2 2 2 2 1 1 1 1 1 1 1 1 1 1 0 0 1 1
2 1 2 1 1 1 2 2 2 5 6 3 3 3 4 6 6 7 7 6 5 5 5 4 4 3 3 2 2 1 1 1 2 2 2 2 1 1 1 1 0 0 0 1 1 1 1 1 1
3 2 1 1 1 1 2 3 4 6 6 4 2 3 5 6 7 6 6 6 5 5 5 5 4 4 3 3 2 2 2 2 2 2 2 2 2 1 1 1 0 0 0 0 1 1 1 1 1
2 3 1 1 1 1 1 4 4 6 4 4 4 5 6 7 7 6 6 6 6 6 6 5 5 5 4 3 2 2 2 2 2 2 3 3 2 2 1 1 1 1 1 1 1 1 1 1 1
3 2 2 1 1 1 2 5 6 5 3 5 6 6 6 7 7 8 8 7 7 6 6 5 5 5 5 4 4 2 2 2 2 2 3 3 2 2 2 1 1 1 1 1 1 1 1 1 2
2 2 3 1 0 0 3 7 3 1 4 6 7 7 7 7 8 8 8 7 6 6 6 5 4 5 5 4 4 3 3 3 3 2 3 3 3 3 2 2 2 1 2 2 2 1 1 2 2
3 3 4 2 1 1 4 8 4 2 5 7 7 7 7 7 7 7 7 7 6 7 6 5 6 5 5 4 3 3 3 3 3 3 3 4 4 4 3 2 2 2 2 2 2 2 2 2 2
4 3 3 4 0 2 5 10 9 6 6 8 8 8 7 8 8 6 5 6 5 6 5 5 5 5 4 3 3 2 3 3 3 3 3 4 4 4 4 3 3 3 2 2 2 2 2 2 2
2 4 5 4 1 3 7 11 12 9 7 8 8 8 7 7 6 4 4 4 4 5 5 5 6 5 4 3 3 3 3 3 3 3 3 4 4 4 4 3 3 3 3 3 3 2 2 2 1
4 4 5 3 1 3 6 11 11 8 7 7 7 7 7 6 4 3 2 3 4 5 5 5 6 5 5 4 3 2 2 2 2 2 3 4 4 4 4 4 3 3 3 3 3 3 2 2 1
4 5 4 3 3 3 6 8 5 3 3 4 6 6 6 5 5 3 2 3 4 4 5 4 5 5 5 4 3 2 2 2 2 3 2 3 4 4 4 5 4 4 4 4 4 4 3 2 2
4 2 3 3 4 3 3 7 5 3 4 3 4 3 4 3 3 2 2 2 3 4 4 4 4 4 4 4 4 5 4 3 3 2 2 2 3 4 4 5 5 5 4 4 4 4 4 3 3
1 1 1 2 3 4 3 6 6 2 4 3 2 2 2 3 2 2 1 1 2 2 3 3 3 3 4 4 4 4 3 3 2 2 2 2 2 3 3 4 4 5 4 5 5 5 5 4 4
3 2 2 1 2 5 4 6 7 4 5 3 2 2 3 3 3 2 1 1 1 1 2 2 3 3 3 3 3 4 4 3 2 3 3 2 2 2 3 4 4 4 4 5 5 5 5 4 4
3 2 1 2 2 4 2 5 9 4 4 4 3 3 3 4 3 2 2 0 1 1 2 2 3 3 3 3 3 4 4 4 4 3 3 3 2 2 3 3 4 4 4 4 4 4 4 5 5
5 4 3 4 4 3 3 8 6 2 3 2 2 2 3 3 3 3 2 1 1 0 1 2 2 2 2 2 3 3 4 3 3 3 3 3 3 3 3 3 4 4 4 4 4 4 4 4 5
4 4 2 1 1 4 6 6 7 3 3 1 1 2 2 2 2 2 3 2 1 1 0 2 2 2 2 2 2 2 3 3 3 3 3 2 2 2 3 3 4 4 4 4 4 3 4 4 5
1 3 3 4 3 6 6 6 5 4 4 3 2 2 1 2 2 2 2 2 2 2 1 1 1 1 1 1 2 2 2 2 2 2 2 2 3 3 3 3 4 4 4 4 4 4 4 4 4
5 5 4 3 3 4 6 6 2 4 4 5 4 2 1 1 2 2 2 2 2 2 2 1 1 0 1 1 2 2 2 2 2 2 2 3 3 3 3 3 3 4 4 4 4 4 4 5 5
5 6 7 5 5 5 5 8 2 2 2 3 3 2 2 2 1 2 2 2 2 2 2 2 2 1 1 1 1 2 2 1 1 2 2 3 3 3 3 3 4 4 4 4 5 5 5 5 6
Wind_Direction
333 316 266 232 216 217 224 201 185 154 148 54 37 283 194 61 322 49 72 101 123 141 146 142 124 120 115 111 108 105 106 110 110 108 110 107 103 100 98 93 88 84 82 81 81 79 78 77 75
329 302 232 231 232 221 210 198 197 189 72 109 107 228 143 96 38 68 109 119 136 139 146 141 120 122 118 114 110 106 103 105 106 103 106 108 104 102 100 96 91 86 83 83 82 80 78 77 76
314 305 239 210 222 234 201 169 182 108 108 183 149 33 358 54 80 92 89 135 140 138 145 133 122 124 123 118 115 110 106 103 103 102 101 106 105 103 101 96 91 88 86 84 82 79 78 77 76
242 179 203 221 211 231 254 155 152 156 153 155 195 141 105 34 23 54 120 145 144 139 144 133 123 125 125 125 120 115 111 107 106 105 102 102 104 101 99 96 92 89 86 85 83 79 78 75 73
231 196 193 210 222 218 244 272 225 213 195 170 208 180 130 82 61 106 139 147 147 143 144 138 123 124 126 127 125 119 116 113 108 102 102 101 98 96 96 94 91 87 83 84 85 80 81 77 74
161 204 209 213 211 206 224 238 212 222 213 187 218 207 136 102 119 134 148 152 149 145 144 143 128 122 126 129 128 123 117 110 103 95 96 98 97 95 93 92 90 87 84 79 78 75 77 78 73
190 189 216 218 214 217 213 198 227 220 217 218 244 202 152 152 136 143 154 152 147 145 148 154 160 154 135 126 123 119 114 106 97 93 87 83 86 89 84 83 88 89 85 79 73 68 64 70 67
189 172 194 211 219 218 164 166 280 263 254 36 243 231 186 131 140 149 153 157 155 154 161 160 167 171 166 152 123 116 112 105 98 93 87 78 83 89 82 87 83 84 83 79 71 66 61 55 55
220 206 211 209 213 195 154 189 167 339 205 206 247 299 23 106 148 157 160 172 173 175 179 178 173 175 169 164 140 137 123 111 116 114 103 117 132 126 114 76 67 73 77 77 68 58 53 41 63
218 213 212 224 237 193 169 222 199 199 224 233 232 227 153 164 179 185 189 192 193 192 191 191 185 176 174 165 166 167 163 156 157 149 145 157 148 120 112 94 74 68 66 77 67 51 55 332 28
153 201 173 205 252 223 205 215 206 223 245 248 250 230 195 195 203 209 212 210 207 200 191 193 187 176 177 174 182 180 174 176 169 169 172 177 173 159 146 126 110 101 102 72 72 116 323 324 334
143 196 215 196 183 212 222 209 219 239 260 293 272 237 208 213 218 221 221 220 217 209 201 196 192 184 184 184 185 192 193 195 190 189 194 196 196 190 174 171 127 49 356 4 354 333 334 310 297
174 176 161 166 146 197 210 237 261 259 264 270 260 234 228 229 230 233 235 231 226 217 210 203 198 195 191 190 195 198 210 225 205 199 203 210 210 201 199 188 183 226 277 308 308 299 310 297 289
144 158 208 263 214 186 250 269 257 263 260 240 237 241 240 238 237 233 231 231 227 223 215 204 203 204 198 200 205 209 213 226 223 209 206 210 219 209 204 212 223 238 233 269 283 290 279 281 281
142 163 231 231 244 212 276 267 237 254 245 246 247 249 250 245 239 234 231 232 230 228 217 204 207 205 205 207 212 215 214 225 228 219 208 205 211 208 206 221 225 241 249 251 249 275 262 269 273
178 219 242 174 239 227 243 268 263 254 245 258 257 256 251 248 243 240 235 233 232 228 215 201 203 202 206 207 213 215 216 223 226 222 210 207 210 208 207 217 231 229 223 227 235 248 265 263 273
195 233 248 242 138 246 232 266 285 276 262 268 268 262 256 255 251 242 235 231 226 221 210 200 200 200 202 207 214 216 218 224 223 222 213 208 211 210 212 215 222 224 225 226 233 248 268 270 277
207 222 246 259 33 259 250 263 278 267 264 271 273 267 261 260 258 247 235 228 222 215 206 202 200 200 198 200 205 210 222 223 220 219 219 213 212 211 213 214 214 219 220 221 223 243 265 271 283
206 221 256 277 6 270 261 274 282 282 271 268 267 267 264 265 267 254 238 223 208 203 199 201 202 195 187 191 197 206 223 216 216 219 221 221 215 209 212 216 209 215 223 229 225 232 252 264 285
208 241 264 284 9 272 284 282 279 277 265 264 267 269 269 269 266 243 222 207 200 197 198 201 203 196 194 201 201 215 217 217 226 225 223 224 215 208 209 211 211 211 217 219 220 217 237 246 245
229 236 258 280 314 236 291 280 263 275 253 263 258 263 274 274 275 262 226 208 202 200 202 204 203 198 194 195 189 187 194 205 213 227 228 229 223 213 210 211 214 214 215 217 217 216 223 234 239
244 225 242 264 280 280 309 291 280 288 285 274 266 272 289 295 290 273 237 214 207 206 201 203 199 193 189 186 194 201 208 220 230 238 238 240 229 219 212 216 218 217 219 221 218 222 227 224 237
216 110 200 238 252 273 239 259 272 268 269 270 282 309 325 330 322 307 253 219 207 193 193 194 188 185 183 191 202 205 215 232 233 236 235 233 224 218 217 224 225 222 222 225 220 220 221 222 232
149 135 120 153 223 257 233 238 269 232 237 250 264 302 337 352 353 351 9 145 159 160 179 180 181 187 190 196 207 211 216 222 228 232 238 239 231 225 222 221 226 229 227 226 223 224 222 224 231
193 194 249 243 234 249 143 240 256 255 246 250 271 298 335 350 1 9 16 62 125 165 181 183 187 197 199 201 211 216 222 221 224 229 232 242 240 238 230 226 225 227 232 233 225 222 225 225 228
195 216 214 246 258 276 198 244 261 280 291 290 292 307 328 347 2 7 6 14 48 207 186 182 191 203 199 203 215 221 226 225 231 233 235 239 247 247 238 232 233 231 228 229 224 221 224 227 232
174 203 261 209 332 277 253 263 282 250 254 258 288 306 319 350 359 355 6 17 16 356 295 199 191 201 205 213 219 227 228 230 236 238 237 247 261 257 241 236 235 234 229 228 225 225 226 226 232
264 162 171 194 231 262 270 258 254 225 226 221 234 256 301 343 352 352 358 5 17 10 356 357 205 217 221 228 229 238 236 237 237 234 239 257 264 259 245 240 240 238 235 229 227 234 229 231 237
172 180 197 192 233 242 271 267 237 225 207 208 221 235 264 302 328 335 346 11 23 23 16 15 12 336 307 276 252 239 247 246 237 239 250 257 262 256 254 247 244 242 238 232 230 235 232 234 241
228 213 192 206 220 227 257 271 64 216 231 226 238 247 259 281 315 333 341 7 16 13 11 11 5 341 310 289 272 257 246 246 251 255 259 260 259 258 256 249 245 244 240 236 234 238 239 239 242